FW0527 Weather Reports


time (UTC)temp
C
wind
direction
speed
KPH
gust
KPH
rain 1hr
cm
rain 24hr
cm
rain mn
cm
humidity
%
barometer
mb
20260508013029 20 329 0.0 8.0 0.00 0.00 0.00 54 1013.1
20260508011529 21 300 0.0 9.7 0.00 0.00 0.00 53 1013.1
20260508010033 21 293 0.0 0.0 0.00 0.00 0.00 50 1013.3
20260508004528 22 307 0.0 12.9 0.00 0.00 0.00 50 1013.1
20260508003028 22 278 0.0 3.2 0.00 0.00 0.00 51 1013.1
20260508001546 22 312 0.0 6.4 0.00 0.00 0.00 48 1013.1
20260508000025 23 303 0.0 16.1 0.00 0.00 0.00 47 1013.1
20260507234525 23 322 0.0 27.4 0.00 0.00 0.00 40 1013.0
20260507233023 23 303 0.0 20.9 0.00 0.00 0.00 41 1013.0
20260507231531 23 306 0.0 14.5 0.00 0.00 0.00 44 1013.2
20260507230025 23 319 0.0 12.9 0.00 0.00 0.00 44 1013.2
20260507224526 24 327 0.0 3.2 0.00 0.00 0.00 42 1013.2
20260507223017 24 282 0.0 6.4 0.00 0.00 0.00 39 1013.5
20260507221515 25 306 0.0 17.7 0.00 0.00 0.00 38 1013.4
20260507220021 25 296 1.6 22.5 0.00 0.00 0.00 36 1013.7
20260507214510 25 312 0.0 14.5 0.00 0.00 0.00 37 1013.9
20260507213010 26 254 0.0 22.5 0.00 0.00 0.00 35 1014.1
20260507211506 26 302 1.6 17.7 0.00 0.00 0.00 34 1014.3
20260507210103 26 311 0.0 16.1 0.00 0.00 0.00 34 1014.5
20260507204502 26 315 0.0 4.8 0.00 0.00 0.00 33 1014.8
20260507203102 26 305 0.0 4.8 0.00 0.00 0.00 31 1014.8
20260507201601 27 317 1.6 19.3 0.00 0.00 0.00 29 1014.8
20260507200109 27 315 0.0 12.9 0.00 0.00 0.00 31 1014.8
20260507194556 27 293 0.0 12.9 0.00 0.00 0.00 32 1014.8
20260507193054 28 302 0.0 17.7 0.00 0.00 0.00 31 1015.0
20260507191555 28 305 0.0 0.0 0.00 0.00 0.00 27 1015.2
20260507190053 28 234 0.0 0.0 0.00 0.00 0.00 27 1015.5
20260507184550 28 101 0.0 14.5 0.00 0.00 0.00 20 1015.7
20260507183145 27 261 0.0 0.0 0.00 0.00 0.00 21 1015.7
20260507181543 27 101 0.0 6.4 0.00 0.00 0.00 23 1016.0
20260507180041 26 5 0.0 0.0 0.00 0.00 0.00 23 1016.1
20260507174546 27 82 0.0 0.0 0.00 0.00 0.00 21 1016.1
20260507173037 26 167 0.0 0.0 0.00 0.00 0.00 23 1016.0
20260507171537 26 355 0.0 1.6 0.00 0.00 0.00 24 1016.2
20260507170042 26 355 0.0 12.9 0.00 0.00 0.00 26 1016.2
20260507164532 25 130 0.0 0.0 0.00 0.00 0.00 28 1016.2
20260507163024 24 48 0.0 1.6 0.00 0.00 0.00 31 1016.3
20260507161520 22 97 0.0 12.9 0.00 0.00 0.00 34 1016.3
20260507160017 19 135 0.0 3.2 0.00 0.00 0.00 43 1016.3
20260507154512 16 105 0.0 0.0 0.00 0.00 0.00 60 1016.4
20260507153009 13 321 0.0 0.0 0.00 0.00 0.00 76 1016.4
20260507151501 12 321 0.0 0.0 0.00 0.00 0.00 80 1016.4
20260507150058 11 113 0.0 0.0 0.00 0.00 0.00 82 1016.4
20260507144554 10 113 0.0 0.0 0.00 0.00 0.00 82 1016.4
20260507143050 9 113 0.0 0.0 0.00 0.00 0.00 81 1016.4
20260507141547 8 113 0.0 0.0 0.00 0.00 0.00 79 1016.3
20260507140048 8 113 0.0 0.0 0.00 0.00 0.00 80 1016.4
20260507134544 7 112 0.0 0.0 0.00 0.00 0.00 80 1016.3
20260507133044 7 112 0.0 0.0 0.00 0.00 0.00 80 1016.2
20260507131554 7 112 0.0 0.0 0.00 0.00 0.00 79 1016.2
20260507130050 7 112 0.0 0.0 0.00 0.00 0.00 79 1016.3
20260507124547 7 112 0.0 0.0 0.00 0.03 0.00 80 1016.1
20260507123041 7 112 0.0 0.0 0.00 0.03 0.00 81 1016.0
20260507121539 7 112 0.0 0.0 0.00 0.03 0.00 81 1016.0
20260507120042 7 112 0.0 0.0 0.00 0.03 0.00 82 1016.0
20260507114537 7 112 0.0 0.0 0.00 0.03 0.00 82 1016.0
20260507113034 7 112 0.0 0.0 0.00 0.03 0.00 83 1016.0
20260507111533 7 112 0.0 0.0 0.00 0.03 0.00 83 1016.0
20260507110031 7 112 0.0 0.0 0.00 0.03 0.00 83 1016.1
20260507104530 7 112 0.0 0.0 0.00 0.03 0.00 83 1016.1
20260507103028 7 112 0.0 0.0 0.00 0.03 0.00 83 1016.4
20260507101527 7 112 0.0 0.0 0.00 0.03 0.00 82 1016.4
20260507100033 7 112 0.0 0.0 0.00 0.03 0.00 84 1016.5
20260507094523 7 112 0.0 0.0 0.00 0.03 0.00 84 1016.6
20260507093023 7 112 0.0 0.0 0.00 0.03 0.00 84 1016.7
20260507091522 7 112 0.0 0.0 0.00 0.03 0.00 84 1016.6
20260507090023 7 112 0.0 0.0 0.00 0.03 0.00 84 1016.7
20260507084519 8 112 0.0 0.0 0.00 0.03 0.00 84 1016.9
20260507083018 8 112 0.0 0.0 0.00 0.03 0.00 85 1017.0
20260507081532 8 112 0.0 0.0 0.00 0.03 0.00 86 1017.0
20260507080014 8 112 0.0 0.0 0.00 0.03 0.00 86 1017.2
20260507074523 8 112 0.0 0.0 0.00 0.03 0.00 87 1017.1
20260507073013 8 112 0.0 0.0 0.00 0.03 0.00 87 1017.2
20260507071511 8 112 0.0 0.0 0.00 0.03 0.00 86 1017.3
20260507070017 8 112 0.0 0.0 0.00 0.03 0.00 86 1017.3
20260507064509 8 112 0.0 0.0 0.00 0.03 0.03 86 1017.4
20260507063016 8 112 0.0 0.0 0.00 0.03 0.03 86 1017.4
20260507061508 8 112 0.0 0.0 0.00 0.03 0.03 86 1017.3
20260507060008 9 112 0.0 0.0 0.00 0.03 0.03 86 1017.6
20260507054507 9 222 0.0 0.0 0.00 0.03 0.03 86 1017.6
20260507053007 9 305 0.0 0.0 0.00 0.03 0.03 85 1017.7
20260507051506 9 305 0.0 0.0 0.00 0.03 0.03 84 1017.6
20260507050013 10 305 0.0 0.0 0.00 0.03 0.03 84 1017.6
20260507044604 10 305 0.0 0.0 0.00 0.03 0.03 83 1017.6
20260507043004 10 305 0.0 0.0 0.00 0.03 0.03 81 1017.6
20260507041503 11 305 0.0 0.0 0.00 0.03 0.03 80 1017.6
20260507040005 11 305 0.0 0.0 0.00 0.03 0.03 79 1017.6
20260507034501 12 305 0.0 0.0 0.00 0.03 0.03 78 1017.5
20260507033004 12 305 0.0 0.0 0.00 0.03 0.03 76 1017.5
20260507031501 13 305 0.0 0.0 0.00 0.03 0.03 75 1017.4
20260507030101 13 305 0.0 0.0 0.00 0.03 0.03 75 1017.4
20260507024600 14 305 0.0 0.0 0.00 0.03 0.03 74 1017.1
20260507023107 15 305 0.0 0.0 0.00 0.03 0.03 73 1017.0
20260507021602 15 303 0.0 0.0 0.00 0.03 0.03 72 1017.1
20260507020100 15 302 0.0 0.0 0.00 0.03 0.03 71 1017.1
20260507014605 16 310 0.0 9.7 0.00 0.03 0.03 69 1017.0